TimeMST,TemperatureF,Dew PointF,Humidity,Sea Level PressureIn,VisibilityMPH,Wind Direction,Wind SpeedMPH,Gust SpeedMPH,PrecipitationIn,Events,Conditions,WindDirDegrees,DateUTC
12:55 AM,30.0,24.1,79,29.80,10.0,NE,3.5,-,N/A,,Clear,50,2013-02-06 07:55:00
1:55 AM,28.0,23.0,81,29.79,10.0,NNE,3.5,-,N/A,,Clear,30,2013-02-06 08:55:00
2:55 AM,27.0,23.0,85,29.77,10.0,Calm,Calm,-,N/A,,Clear,0,2013-02-06 09:55:00
3:55 AM,23.0,21.0,92,29.77,10.0,West,4.6,-,N/A,,Clear,280,2013-02-06 10:55:00
4:55 AM,23.0,21.0,92,29.77,10.0,WNW,4.6,-,N/A,,Clear,290,2013-02-06 11:55:00
5:55 AM,21.9,19.9,92,29.79,10.0,WNW,4.6,-,N/A,,Clear,290,2013-02-06 12:55:00
6:55 AM,24.1,21.0,88,29.80,10.0,West,3.5,-,N/A,,Clear,280,2013-02-06 13:55:00
7:55 AM,28.0,25.0,88,29.82,10.0,West,4.6,-,N/A,,Clear,280,2013-02-06 14:55:00
8:55 AM,32.0,28.0,85,29.83,10.0,West,5.8,-,N/A,,Clear,280,2013-02-06 15:55:00
9:55 AM,36.0,30.0,79,29.84,10.0,WSW,5.8,-,N/A,,Clear,240,2013-02-06 16:55:00
10:55 AM,42.1,33.1,70,29.85,10.0,West,6.9,-,N/A,,Clear,260,2013-02-06 17:55:00
11:55 AM,48.0,33.1,56,29.84,10.0,NW,10.4,-,N/A,,Clear,320,2013-02-06 18:55:00
12:55 PM,48.9,33.1,54,29.84,10.0,NNW,9.2,-,N/A,,Clear,330,2013-02-06 19:55:00
1:55 PM,51.1,30.9,46,29.85,10.0,North,9.2,-,N/A,,Clear,10,2013-02-06 20:55:00
2:55 PM,50.0,30.9,48,29.88,10.0,NNW,8.1,-,N/A,,Scattered Clouds,340,2013-02-06 21:55:00
3:55 PM,48.0,32.0,54,29.90,10.0,NNW,3.5,-,N/A,,Overcast,340,2013-02-06 22:55:00
4:55 PM,45.0,30.9,58,29.93,10.0,Calm,Calm,-,N/A,,Overcast,0,2013-02-06 23:55:00
5:55 PM,42.1,28.9,60,29.96,10.0,NW,5.8,-,N/A,,Overcast,310,2013-02-07 00:55:00
6:55 PM,39.0,28.9,67,30.00,10.0,NW,6.9,-,N/A,,Mostly Cloudy,320,2013-02-07 01:55:00
7:55 PM,36.0,27.0,70,30.02,10.0,NW,5.8,-,N/A,,Clear,310,2013-02-07 02:55:00
8:55 PM,30.9,25.0,79,30.04,10.0,West,6.9,-,N/A,,Clear,260,2013-02-07 03:55:00
9:55 PM,30.0,25.0,82,30.05,10.0,West,8.1,-,N/A,,Clear,260,2013-02-07 04:55:00
10:55 PM,28.0,24.1,85,30.05,10.0,West,5.8,-,N/A,,Clear,280,2013-02-07 05:55:00
11:55 PM,27.0,23.0,85,30.07,10.0,West,6.9,-,N/A,,Clear,260,2013-02-07 06:55:00